owner,sensor,date,latitude,longitude,air_pressure(mBar),qcFlag 
TABS,ioos:station:wmo:42043:1,2006-04-01T00:00:00Z,28.9818,-94.9186,1017.71,11111222 
TABS,ioos:station:wmo:42043:1,2006-04-01T00:30:00Z,28.9818,-94.9186,1017.83,11111222 
TABS,ioos:station:wmo:42043:1,2006-04-01T01:00:00Z,28.9818,-94.9186,1018.0,11111222 
TABS,ioos:station:wmo:42043:1,2006-04-01T01:30:00Z,28.9818,-94.9186,1018.16,11111222 
TABS,ioos:station:wmo:42043:1,2006-04-01T02:00:00Z,28.9818,-94.9186,1018.48,11111222 
TABS,ioos:station:wmo:42043:1,2006-04-01T02:30:00Z,28.9818,-94.9186,1018.7,11111222 
TABS,ioos:station:wmo:42043:1,2006-04-01T03:00:00Z,28.9818,-94.9186,1018.93,11111222 
TABS,ioos:station:wmo:42043:1,2006-04-01T03:30:00Z,28.9818,-94.9186,1019.08,11111222 
TABS,ioos:station:wmo:42043:1,2006-04-01T04:00:00Z,28.9818,-94.9186,1018.96,11111222 
TABS,ioos:station:wmo:42043:1,2006-04-01T04:30:00Z,28.9818,-94.9186,1019.06,11111222 
TABS,ioos:station:wmo:42043:1,2006-04-01T05:00:00Z,28.9818,-94.9186,1019.24,11111222 
TABS,ioos:station:wmo:42043:1,2006-04-01T05:30:00Z,28.9818,-94.9186,1019.23,11111222 
TABS,ioos:station:wmo:42043:1,2006-04-01T06:00:00Z,28.9818,-94.9186,1019.25,11111222 
TABS,ioos:station:wmo:42043:1,2006-04-01T06:30:00Z,28.9818,-94.9186,1019.19,11111222 
TABS,ioos:station:wmo:42043:1,2006-04-01T07:00:00Z,28.9818,-94.9186,1018.83,11111222 
TABS,ioos:station:wmo:42043:1,2006-04-01T07:30:00Z,28.9818,-94.9186,1018.56,11111222 
TABS,ioos:station:wmo:42043:1,2006-04-01T08:00:00Z,28.9818,-94.9186,1018.33,11111222 
TABS,ioos:station:wmo:42043:1,2006-04-01T08:30:00Z,28.9818,-94.9186,1017.94,11111222 
TABS,ioos:station:wmo:42043:1,2006-04-01T09:00:00Z,28.9818,-94.9186,1017.63,11111222 
TABS,ioos:station:wmo:42043:1,2006-04-01T09:30:00Z,28.9818,-94.9186,1017.49,11111222 
TABS,ioos:station:wmo:42043:1,2006-04-01T10:00:00Z,28.9818,-94.9186,1017.18,11111222 
TABS,ioos:station:wmo:42043:1,2006-04-01T10:30:00Z,28.9818,-94.9186,1017.29,11111222 
TABS,ioos:station:wmo:42043:1,2006-04-01T11:00:00Z,28.9818,-94.9186,1017.88,11111222 
TABS,ioos:station:wmo:42043:1,2006-04-01T11:30:00Z,28.9818,-94.9186,1018.17,11111222 
TABS,ioos:station:wmo:42043:1,2006-04-01T12:00:00Z,28.9818,-94.9186,1018.63,11111222 
TABS,ioos:station:wmo:42043:1,2006-04-01T12:30:00Z,28.9818,-94.9186,1019.05,11111222 
TABS,ioos:station:wmo:42043:1,2006-04-01T13:00:00Z,28.9818,-94.9186,1019.37,11111222 
TABS,ioos:station:wmo:42043:1,2006-04-01T13:30:00Z,28.9818,-94.9186,1019.7,11111222 
TABS,ioos:station:wmo:42043:1,2006-04-01T14:00:00Z,28.9818,-94.9186,1020.0,11111222 
TABS,ioos:station:wmo:42043:1,2006-04-01T14:30:00Z,28.9818,-94.9186,1020.16,11111222 
TABS,ioos:station:wmo:42043:1,2006-04-01T15:00:00Z,28.9818,-94.9186,1020.27,11111222 
TABS,ioos:station:wmo:42043:1,2006-04-01T15:30:00Z,28.9818,-94.9186,1020.11,11111222 
TABS,ioos:station:wmo:42043:1,2006-04-01T16:00:00Z,28.9818,-94.9186,1020.24,11111222 
TABS,ioos:station:wmo:42043:1,2006-04-01T16:30:00Z,28.9818,-94.9186,1020.03,11111222 
TABS,ioos:station:wmo:42043:1,2006-04-01T17:00:00Z,28.9818,-94.9186,1019.75,11111222 
TABS,ioos:station:wmo:42043:1,2006-04-01T17:30:00Z,28.9818,-94.9186,1019.47,11111222 
TABS,ioos:station:wmo:42043:1,2006-04-01T18:00:00Z,28.9818,-94.9186,1019.29,11111222 
TABS,ioos:station:wmo:42043:1,2006-04-01T18:30:00Z,28.9818,-94.9186,1018.93,11111222 
TABS,ioos:station:wmo:42043:1,2006-04-01T19:00:00Z,28.9818,-94.9186,1018.59,11111222 
TABS,ioos:station:wmo:42043:1,2006-04-01T19:30:00Z,28.9818,-94.9186,1018.19,11111222 
TABS,ioos:station:wmo:42043:1,2006-04-01T20:00:00Z,28.9818,-94.9186,1017.53,11111222 
TABS,ioos:station:wmo:42043:1,2006-04-01T20:30:00Z,28.9818,-94.9186,1017.38,11111222 
TABS,ioos:station:wmo:42043:1,2006-04-01T21:00:00Z,28.9818,-94.9186,1017.02,11111222 
TABS,ioos:station:wmo:42043:1,2006-04-01T21:30:00Z,28.9818,-94.9186,1016.83,11111222 
TABS,ioos:station:wmo:42043:1,2006-04-01T22:00:00Z,28.9818,-94.9186,1016.47,11111222 
TABS,ioos:station:wmo:42043:1,2006-04-01T22:30:00Z,28.9818,-94.9186,1016.52,11111222 
TABS,ioos:station:wmo:42043:1,2006-04-01T23:00:00Z,28.9818,-94.9186,1016.28,11111222 
TABS,ioos:station:wmo:42043:1,2006-04-01T23:30:00Z,28.9818,-94.9186,1016.19,11111222 
TABS,ioos:station:wmo:42043:1,2006-04-02T00:00:00Z,28.9818,-94.9186,1016.11,11111222 
TABS,ioos:station:wmo:42043:1,2006-04-02T00:30:00Z,28.9818,-94.9186,1015.98,11111222 
TABS,ioos:station:wmo:42043:1,2006-04-02T01:00:00Z,28.9818,-94.9186,1015.78,11111222 
TABS,ioos:station:wmo:42043:1,2006-04-02T01:30:00Z,28.9818,-94.9186,1015.71,11111222 
TABS,ioos:station:wmo:42043:1,2006-04-02T02:00:00Z,28.9818,-94.9186,1015.82,11111222 
TABS,ioos:station:wmo:42043:1,2006-04-02T02:30:00Z,28.9818,-94.9186,1015.86,11111222 
TABS,ioos:station:wmo:42043:1,2006-04-02T03:00:00Z,28.9818,-94.9186,1016.06,11111222 
TABS,ioos:station:wmo:42043:1,2006-04-02T03:30:00Z,28.9818,-94.9186,1016.06,11111222 
TABS,ioos:station:wmo:42043:1,2006-04-02T04:00:00Z,28.9818,-94.9186,1016.19,11111222 
TABS,ioos:station:wmo:42043:1,2006-04-02T04:30:00Z,28.9818,-94.9186,1016.13,11111222 
TABS,ioos:station:wmo:42043:1,2006-04-02T05:00:00Z,28.9818,-94.9186,1016.18,11111222 
TABS,ioos:station:wmo:42043:1,2006-04-02T05:30:00Z,28.9818,-94.9186,1015.93,11111222 
TABS,ioos:station:wmo:42043:1,2006-04-02T06:00:00Z,28.9818,-94.9186,1015.92,11111222 
TABS,ioos:station:wmo:42043:1,2006-04-02T06:30:00Z,28.9818,-94.9186,1015.95,11111222 
TABS,ioos:station:wmo:42043:1,2006-04-02T07:00:00Z,28.9818,-94.9186,1015.68,11111222 
TABS,ioos:station:wmo:42043:1,2006-04-02T07:30:00Z,28.9818,-94.9186,1015.24,11111222 
TABS,ioos:station:wmo:42043:1,2006-04-02T08:00:00Z,28.9818,-94.9186,1014.9,11111222 
TABS,ioos:station:wmo:42043:1,2006-04-02T08:30:00Z,28.9818,-94.9186,1014.28,11111222 
TABS,ioos:station:wmo:42043:1,2006-04-02T09:00:00Z,28.9818,-94.9186,1013.93,11111222 
TABS,ioos:station:wmo:42043:1,2006-04-02T09:30:00Z,28.9818,-94.9186,1014.96,11111222 
TABS,ioos:station:wmo:42043:1,2006-04-02T10:00:00Z,28.9818,-94.9186,1014.99,11111222 
TABS,ioos:station:wmo:42043:1,2006-04-02T10:30:00Z,28.9818,-94.9186,1015.25,11111222 
TABS,ioos:station:wmo:42043:1,2006-04-02T11:00:00Z,28.9818,-94.9186,1015.63,11111222 
TABS,ioos:station:wmo:42043:1,2006-04-02T11:30:00Z,28.9818,-94.9186,1016.2,11111222 
TABS,ioos:station:wmo:42043:1,2006-04-02T12:00:00Z,28.9818,-94.9186,1016.48,11111222 
TABS,ioos:station:wmo:42043:1,2006-04-02T12:30:00Z,28.9818,-94.9186,1016.65,11111222 
TABS,ioos:station:wmo:42043:1,2006-04-02T13:00:00Z,28.9818,-94.9186,1017.18,11111222 
TABS,ioos:station:wmo:42043:1,2006-04-02T13:30:00Z,28.9818,-94.9186,1017.21,11111222 
TABS,ioos:station:wmo:42043:1,2006-04-02T14:00:00Z,28.9818,-94.9186,1016.92,11111222 
TABS,ioos:station:wmo:42043:1,2006-04-02T14:30:00Z,28.9818,-94.9186,1016.83,11111222 
TABS,ioos:station:wmo:42043:1,2006-04-02T15:00:00Z,28.9818,-94.9186,1016.97,11111222 
TABS,ioos:station:wmo:42043:1,2006-04-02T15:30:00Z,28.9818,-94.9186,1017.55,11111222 
TABS,ioos:station:wmo:42043:1,2006-04-02T16:00:00Z,28.9818,-94.9186,1017.66,11111222 
TABS,ioos:station:wmo:42043:1,2006-04-02T16:30:00Z,28.9818,-94.9186,1017.55,11111222 
TABS,ioos:station:wmo:42043:1,2006-04-02T17:00:00Z,28.9818,-94.9186,1017.45,11111222 
TABS,ioos:station:wmo:42043:1,2006-04-02T17:30:00Z,28.9818,-94.9186,1017.32,11111222 
TABS,ioos:station:wmo:42043:1,2006-04-02T18:00:00Z,28.9818,-94.9186,1016.85,11111222 
TABS,ioos:station:wmo:42043:1,2006-04-02T18:30:00Z,28.9818,-94.9186,1016.31,11111222 
TABS,ioos:station:wmo:42043:1,2006-04-02T19:00:00Z,28.9818,-94.9186,1016.2,11111222 
TABS,ioos:station:wmo:42043:1,2006-04-02T19:30:00Z,28.9818,-94.9186,1016.54,11111222 
TABS,ioos:station:wmo:42043:1,2006-04-02T20:00:00Z,28.9818,-94.9186,1016.06,11111222 
TABS,ioos:station:wmo:42043:1,2006-04-02T20:30:00Z,28.9818,-94.9186,1016.03,11111222 
TABS,ioos:station:wmo:42043:1,2006-04-02T21:00:00Z,28.9818,-94.9186,1015.8,11111222 
TABS,ioos:station:wmo:42043:1,2006-04-02T21:30:00Z,28.9818,-94.9186,1016.09,11111222 
TABS,ioos:station:wmo:42043:1,2006-04-02T22:00:00Z,28.9818,-94.9186,1016.13,11111222 
TABS,ioos:station:wmo:42043:1,2006-04-02T22:30:00Z,28.9818,-94.9186,1016.12,11111222 
TABS,ioos:station:wmo:42043:1,2006-04-02T23:00:00Z,28.9818,-94.9186,1016.18,11111222 
TABS,ioos:station:wmo:42043:1,2006-04-02T23:30:00Z,28.9818,-94.9186,1015.54,11111222 
TABS,ioos:station:wmo:42043:1,2006-04-03T00:00:00Z,28.9818,-94.9186,1015.35,11111222 
TABS,ioos:station:wmo:42043:1,2006-04-03T00:30:00Z,28.9818,-94.9186,1015.34,11111222 
TABS,ioos:station:wmo:42043:1,2006-04-03T01:00:00Z,28.9818,-94.9186,1015.73,11111222 
TABS,ioos:station:wmo:42043:1,2006-04-03T01:30:00Z,28.9818,-94.9186,1015.87,11111222 
TABS,ioos:station:wmo:42043:1,2006-04-03T02:00:00Z,28.9818,-94.9186,1016.0,11111222 
TABS,ioos:station:wmo:42043:1,2006-04-03T02:30:00Z,28.9818,-94.9186,1016.3,11111222 
TABS,ioos:station:wmo:42043:1,2006-04-03T03:00:00Z,28.9818,-94.9186,1016.36,11111222 
TABS,ioos:station:wmo:42043:1,2006-04-03T03:30:00Z,28.9818,-94.9186,1016.45,11111222 
TABS,ioos:station:wmo:42043:1,2006-04-03T04:00:00Z,28.9818,-94.9186,1016.46,11111222 
TABS,ioos:station:wmo:42043:1,2006-04-03T04:30:00Z,28.9818,-94.9186,1016.26,11111222 
TABS,ioos:station:wmo:42043:1,2006-04-03T05:00:00Z,28.9818,-94.9186,1016.09,11111222 
TABS,ioos:station:wmo:42043:1,2006-04-03T05:30:00Z,28.9818,-94.9186,1015.84,11111222 
TABS,ioos:station:wmo:42043:1,2006-04-03T06:00:00Z,28.9818,-94.9186,1016.15,11111222 
TABS,ioos:station:wmo:42043:1,2006-04-03T06:30:00Z,28.9818,-94.9186,1016.06,11111222 
TABS,ioos:station:wmo:42043:1,2006-04-03T07:00:00Z,28.9818,-94.9186,1015.97,11111222 
TABS,ioos:station:wmo:42043:1,2006-04-03T07:30:00Z,28.9818,-94.9186,1015.47,11111222 
TABS,ioos:station:wmo:42043:1,2006-04-03T08:00:00Z,28.9818,-94.9186,1015.35,11111222 
TABS,ioos:station:wmo:42043:1,2006-04-03T08:30:00Z,28.9818,-94.9186,1015.43,11111222 
TABS,ioos:station:wmo:42043:1,2006-04-03T09:00:00Z,28.9818,-94.9186,1015.63,11111222 
TABS,ioos:station:wmo:42043:1,2006-04-03T09:30:00Z,28.9818,-94.9186,1015.62,11111222 
TABS,ioos:station:wmo:42043:1,2006-04-03T10:00:00Z,28.9818,-94.9186,1015.83,11111222 
TABS,ioos:station:wmo:42043:1,2006-04-03T10:30:00Z,28.9818,-94.9186,1016.27,11111222 
TABS,ioos:station:wmo:42043:1,2006-04-03T11:00:00Z,28.9818,-94.9186,1016.65,11111222 
TABS,ioos:station:wmo:42043:1,2006-04-03T11:30:00Z,28.9818,-94.9186,1016.86,11111222 
TABS,ioos:station:wmo:42043:1,2006-04-03T12:00:00Z,28.9818,-94.9186,1017.3,11111222 
TABS,ioos:station:wmo:42043:1,2006-04-03T12:30:00Z,28.9818,-94.9186,1017.41,11111222 
TABS,ioos:station:wmo:42043:1,2006-04-03T13:00:00Z,28.9818,-94.9186,1017.76,11111222 
TABS,ioos:station:wmo:42043:1,2006-04-03T13:30:00Z,28.9818,-94.9186,1017.93,11111222 
TABS,ioos:station:wmo:42043:1,2006-04-03T14:00:00Z,28.9818,-94.9186,1018.85,11111222 
TABS,ioos:station:wmo:42043:1,2006-04-03T14:30:00Z,28.9818,-94.9186,1018.92,11111222 
TABS,ioos:station:wmo:42043:1,2006-04-03T15:00:00Z,28.9818,-94.9186,1019.12,11111222 
TABS,ioos:station:wmo:42043:1,2006-04-03T15:30:00Z,28.9818,-94.9186,1019.46,11111222 
TABS,ioos:station:wmo:42043:1,2006-04-03T16:00:00Z,28.9818,-94.9186,1019.83,11111222 
TABS,ioos:station:wmo:42043:1,2006-04-03T16:30:00Z,28.9818,-94.9186,1020.14,11111222 
TABS,ioos:station:wmo:42043:1,2006-04-03T17:00:00Z,28.9818,-94.9186,1020.13,11111222 
TABS,ioos:station:wmo:42043:1,2006-04-03T17:30:00Z,28.9818,-94.9186,1019.98,11111222 
TABS,ioos:station:wmo:42043:1,2006-04-03T18:00:00Z,28.9818,-94.9186,1019.54,11111222 
TABS,ioos:station:wmo:42043:1,2006-04-03T18:30:00Z,28.9818,-94.9186,1019.44,11111222 
TABS,ioos:station:wmo:42043:1,2006-04-03T19:00:00Z,28.9818,-94.9186,1019.05,11111222 
TABS,ioos:station:wmo:42043:1,2006-04-03T19:30:00Z,28.9818,-94.9186,1018.92,11111222 
TABS,ioos:station:wmo:42043:1,2006-04-03T20:00:00Z,28.9818,-94.9186,1018.74,11111222 
TABS,ioos:station:wmo:42043:1,2006-04-03T20:30:00Z,28.9818,-94.9186,1018.3,11111222 
TABS,ioos:station:wmo:42043:1,2006-04-03T21:00:00Z,28.9818,-94.9186,1017.98,11111222 
TABS,ioos:station:wmo:42043:1,2006-04-03T21:30:00Z,28.9818,-94.9186,1017.77,11111222 
TABS,ioos:station:wmo:42043:1,2006-04-03T22:00:00Z,28.9818,-94.9186,1017.6,11111222 
TABS,ioos:station:wmo:42043:1,2006-04-03T22:30:00Z,28.9818,-94.9186,1017.54,11111222 
TABS,ioos:station:wmo:42043:1,2006-04-03T23:00:00Z,28.9818,-94.9186,1017.58,11111222 
TABS,ioos:station:wmo:42043:1,2006-04-03T23:30:00Z,28.9818,-94.9186,1017.77,11111222 
TABS,ioos:station:wmo:42043:1,2006-04-04T00:00:00Z,28.9818,-94.9186,1017.73,11111222 
TABS,ioos:station:wmo:42043:1,2006-04-04T00:30:00Z,28.9818,-94.9186,1018.04,11111222 
TABS,ioos:station:wmo:42043:1,2006-04-04T01:00:00Z,28.9818,-94.9186,1018.52,11111222 
TABS,ioos:station:wmo:42043:1,2006-04-04T01:30:00Z,28.9818,-94.9186,1018.58,11111222 
TABS,ioos:station:wmo:42043:1,2006-04-04T02:00:00Z,28.9818,-94.9186,1018.63,11111222 
TABS,ioos:station:wmo:42043:1,2006-04-04T02:30:00Z,28.9818,-94.9186,1018.93,11111222 
TABS,ioos:station:wmo:42043:1,2006-04-04T03:00:00Z,28.9818,-94.9186,1019.25,11111222 
TABS,ioos:station:wmo:42043:1,2006-04-04T03:30:00Z,28.9818,-94.9186,1019.27,11111222 
TABS,ioos:station:wmo:42043:1,2006-04-04T04:00:00Z,28.9818,-94.9186,1019.27,11111222 
TABS,ioos:station:wmo:42043:1,2006-04-04T04:30:00Z,28.9818,-94.9186,1019.63,11111222 
TABS,ioos:station:wmo:42043:1,2006-04-04T05:00:00Z,28.9818,-94.9186,1019.8,11111222 
TABS,ioos:station:wmo:42043:1,2006-04-04T05:30:00Z,28.9818,-94.9186,1019.76,11111222 
TABS,ioos:station:wmo:42043:1,2006-04-04T06:00:00Z,28.9818,-94.9186,1019.36,11111222 
TABS,ioos:station:wmo:42043:1,2006-04-04T06:30:00Z,28.9818,-94.9186,1019.33,11111222 
TABS,ioos:station:wmo:42043:1,2006-04-04T07:00:00Z,28.9818,-94.9186,1019.06,11111222 
TABS,ioos:station:wmo:42043:1,2006-04-04T07:30:00Z,28.9818,-94.9186,1018.88,11111222 
TABS,ioos:station:wmo:42043:1,2006-04-04T08:00:00Z,28.9818,-94.9186,1018.65,11111222 
TABS,ioos:station:wmo:42043:1,2006-04-04T08:30:00Z,28.9818,-94.9186,1018.56,11111222 
TABS,ioos:station:wmo:42043:1,2006-04-04T09:00:00Z,28.9818,-94.9186,1018.49,11111222 
TABS,ioos:station:wmo:42043:1,2006-04-04T09:30:00Z,28.9818,-94.9186,1018.36,11111222 
TABS,ioos:station:wmo:42043:1,2006-04-04T10:00:00Z,28.9818,-94.9186,1018.3,11111222 
TABS,ioos:station:wmo:42043:1,2006-04-04T10:30:00Z,28.9818,-94.9186,1018.73,11111222 
TABS,ioos:station:wmo:42043:1,2006-04-04T11:00:00Z,28.9818,-94.9186,1018.89,11111222 
TABS,ioos:station:wmo:42043:1,2006-04-04T11:30:00Z,28.9818,-94.9186,1019.01,11111222 
TABS,ioos:station:wmo:42043:1,2006-04-04T12:00:00Z,28.9818,-94.9186,1019.23,11111222 
TABS,ioos:station:wmo:42043:1,2006-04-04T12:30:00Z,28.9818,-94.9186,1019.62,11111222 
TABS,ioos:station:wmo:42043:1,2006-04-04T13:00:00Z,28.9818,-94.9186,1019.85,11111222 
TABS,ioos:station:wmo:42043:1,2006-04-04T13:30:00Z,28.9818,-94.9186,1020.1,11111222 
TABS,ioos:station:wmo:42043:1,2006-04-04T14:00:00Z,28.9818,-94.9186,1020.35,11111222 
TABS,ioos:station:wmo:42043:1,2006-04-04T14:30:00Z,28.9818,-94.9186,1020.31,11111222 
TABS,ioos:station:wmo:42043:1,2006-04-04T15:00:00Z,28.9818,-94.9186,1020.82,11111222 
TABS,ioos:station:wmo:42043:1,2006-04-04T15:30:00Z,28.9818,-94.9186,1021.26,11111222 
TABS,ioos:station:wmo:42043:1,2006-04-04T16:00:00Z,28.9818,-94.9186,1021.44,11111222 
TABS,ioos:station:wmo:42043:1,2006-04-04T16:30:00Z,28.9818,-94.9186,1021.42,11111222 
TABS,ioos:station:wmo:42043:1,2006-04-04T17:00:00Z,28.9818,-94.9186,1021.33,11111222 
TABS,ioos:station:wmo:42043:1,2006-04-04T17:30:00Z,28.9818,-94.9186,1020.8,11111222 
TABS,ioos:station:wmo:42043:1,2006-04-04T18:00:00Z,28.9818,-94.9186,1020.53,11111222 
TABS,ioos:station:wmo:42043:1,2006-04-04T18:30:00Z,28.9818,-94.9186,1020.27,11111222 
TABS,ioos:station:wmo:42043:1,2006-04-04T19:00:00Z,28.9818,-94.9186,1019.88,11111222 
TABS,ioos:station:wmo:42043:1,2006-04-04T19:30:00Z,28.9818,-94.9186,1019.6,11111222 
TABS,ioos:station:wmo:42043:1,2006-04-04T20:00:00Z,28.9818,-94.9186,1019.11,11111222 
TABS,ioos:station:wmo:42043:1,2006-04-04T20:30:00Z,28.9818,-94.9186,1018.87,11111222 
TABS,ioos:station:wmo:42043:1,2006-04-04T21:00:00Z,28.9818,-94.9186,1018.63,11111222 
TABS,ioos:station:wmo:42043:1,2006-04-04T21:30:00Z,28.9818,-94.9186,1018.34,11111222 
TABS,ioos:station:wmo:42043:1,2006-04-04T22:00:00Z,28.9818,-94.9186,1018.04,11111222 
TABS,ioos:station:wmo:42043:1,2006-04-04T22:30:00Z,28.9818,-94.9186,1017.7,11111222 
TABS,ioos:station:wmo:42043:1,2006-04-04T23:00:00Z,28.9818,-94.9186,1017.54,11111222 
TABS,ioos:station:wmo:42043:1,2006-04-04T23:30:00Z,28.9818,-94.9186,1017.39,11111222 
TABS,ioos:station:wmo:42043:1,2006-04-05T00:00:00Z,28.9818,-94.9186,1017.21,11111222 
TABS,ioos:station:wmo:42043:1,2006-04-05T00:30:00Z,28.9818,-94.9186,1017.27,11111222 
TABS,ioos:station:wmo:42043:1,2006-04-05T01:00:00Z,28.9818,-94.9186,1017.41,11111222 
TABS,ioos:station:wmo:42043:1,2006-04-05T01:30:00Z,28.9818,-94.9186,1017.5,11111222 
TABS,ioos:station:wmo:42043:1,2006-04-05T02:00:00Z,28.9818,-94.9186,1017.49,11111222 
TABS,ioos:station:wmo:42043:1,2006-04-05T02:30:00Z,28.9818,-94.9186,1017.52,11111222 
TABS,ioos:station:wmo:42043:1,2006-04-05T03:00:00Z,28.9818,-94.9186,1017.94,11111222 
TABS,ioos:station:wmo:42043:1,2006-04-05T03:30:00Z,28.9818,-94.9186,1017.83,11111222 
TABS,ioos:station:wmo:42043:1,2006-04-05T04:00:00Z,28.9818,-94.9186,1017.63,11111222 
TABS,ioos:station:wmo:42043:1,2006-04-05T04:30:00Z,28.9818,-94.9186,1017.5,11111222 
TABS,ioos:station:wmo:42043:1,2006-04-05T05:00:00Z,28.9818,-94.9186,1017.46,11111222 
TABS,ioos:station:wmo:42043:1,2006-04-05T05:30:00Z,28.9818,-94.9186,1017.4,11111222 
TABS,ioos:station:wmo:42043:1,2006-04-05T06:00:00Z,28.9818,-94.9186,1017.28,11111222 
TABS,ioos:station:wmo:42043:1,2006-04-05T06:30:00Z,28.9818,-94.9186,1017.06,11111222 
TABS,ioos:station:wmo:42043:1,2006-04-05T07:00:00Z,28.9818,-94.9186,1016.99,11111222 
TABS,ioos:station:wmo:42043:1,2006-04-05T07:30:00Z,28.9818,-94.9186,1016.88,11111222 
TABS,ioos:station:wmo:42043:1,2006-04-05T08:00:00Z,28.9818,-94.9186,1016.6,11111222 
TABS,ioos:station:wmo:42043:1,2006-04-05T08:30:00Z,28.9818,-94.9186,1016.22,11111222 
TABS,ioos:station:wmo:42043:1,2006-04-05T09:00:00Z,28.9818,-94.9186,1016.22,11111222 
TABS,ioos:station:wmo:42043:1,2006-04-05T09:30:00Z,28.9818,-94.9186,1016.03,11111222 
TABS,ioos:station:wmo:42043:1,2006-04-05T10:00:00Z,28.9818,-94.9186,1015.98,11111222 
TABS,ioos:station:wmo:42043:1,2006-04-05T10:30:00Z,28.9818,-94.9186,1015.95,11111222 
TABS,ioos:station:wmo:42043:1,2006-04-05T11:00:00Z,28.9818,-94.9186,1015.92,11111222 
TABS,ioos:station:wmo:42043:1,2006-04-05T11:30:00Z,28.9818,-94.9186,1015.9,11111222 
TABS,ioos:station:wmo:42043:1,2006-04-05T12:00:00Z,28.9818,-94.9186,1015.95,11111222 
TABS,ioos:station:wmo:42043:1,2006-04-05T12:30:00Z,28.9818,-94.9186,1015.92,11111222 
TABS,ioos:station:wmo:42043:1,2006-04-05T13:00:00Z,28.9818,-94.9186,1016.08,11111222 
TABS,ioos:station:wmo:42043:1,2006-04-05T13:30:00Z,28.9818,-94.9186,1016.25,11111222 
TABS,ioos:station:wmo:42043:1,2006-04-05T14:00:00Z,28.9818,-94.9186,1016.66,11111222 
TABS,ioos:station:wmo:42043:1,2006-04-05T14:30:00Z,28.9818,-94.9186,1016.79,11111222 
TABS,ioos:station:wmo:42043:1,2006-04-05T15:00:00Z,28.9818,-94.9186,1017.32,11111222 
TABS,ioos:station:wmo:42043:1,2006-04-05T15:30:00Z,28.9818,-94.9186,1017.49,11111222 
TABS,ioos:station:wmo:42043:1,2006-04-05T16:00:00Z,28.9818,-94.9186,1017.55,11111222 
TABS,ioos:station:wmo:42043:1,2006-04-05T16:30:00Z,28.9818,-94.9186,1017.26,11111222 
TABS,ioos:station:wmo:42043:1,2006-04-05T17:00:00Z,28.9818,-94.9186,1017.23,11111222 
TABS,ioos:station:wmo:42043:1,2006-04-05T17:30:00Z,28.9818,-94.9186,1017.12,11111222 
TABS,ioos:station:wmo:42043:1,2006-04-05T18:00:00Z,28.9818,-94.9186,1016.82,11111222 
TABS,ioos:station:wmo:42043:1,2006-04-05T18:30:00Z,28.9818,-94.9186,1016.07,11111222 
TABS,ioos:station:wmo:42043:1,2006-04-05T19:00:00Z,28.9818,-94.9186,1015.72,11111222 
TABS,ioos:station:wmo:42043:1,2006-04-05T19:30:00Z,28.9818,-94.9186,1014.91,11111222 
TABS,ioos:station:wmo:42043:1,2006-04-05T20:00:00Z,28.9818,-94.9186,1014.49,11111222 
TABS,ioos:station:wmo:42043:1,2006-04-05T20:30:00Z,28.9818,-94.9186,1014.28,11111222 
TABS,ioos:station:wmo:42043:1,2006-04-05T21:00:00Z,28.9818,-94.9186,1013.93,11111222 
TABS,ioos:station:wmo:42043:1,2006-04-05T21:30:00Z,28.9818,-94.9186,1013.8,11111222 
TABS,ioos:station:wmo:42043:1,2006-04-05T22:00:00Z,28.9818,-94.9186,1013.34,11111222 
TABS,ioos:station:wmo:42043:1,2006-04-05T22:30:00Z,28.9818,-94.9186,1013.15,11111222 
TABS,ioos:station:wmo:42043:1,2006-04-05T23:00:00Z,28.9818,-94.9186,1012.81,11111222 
TABS,ioos:station:wmo:42043:1,2006-04-05T23:30:00Z,28.9818,-94.9186,1012.69,11111222 
TABS,ioos:station:wmo:42043:1,2006-04-06T00:00:00Z,28.9818,-94.9186,1012.44,11111222 
TABS,ioos:station:wmo:42043:1,2006-04-06T00:30:00Z,28.9818,-94.9186,1012.23,11111222 
TABS,ioos:station:wmo:42043:1,2006-04-06T01:00:00Z,28.9818,-94.9186,1012.29,11111222 
TABS,ioos:station:wmo:42043:1,2006-04-06T01:30:00Z,28.9818,-94.9186,1012.27,11111222 
TABS,ioos:station:wmo:42043:1,2006-04-06T02:00:00Z,28.9818,-94.9186,1012.39,11111222 
TABS,ioos:station:wmo:42043:1,2006-04-06T02:30:00Z,28.9818,-94.9186,1012.62,11111222 
TABS,ioos:station:wmo:42043:1,2006-04-06T03:00:00Z,28.9818,-94.9186,1012.43,11111222 
TABS,ioos:station:wmo:42043:1,2006-04-06T03:30:00Z,28.9818,-94.9186,1012.5,11111222 
TABS,ioos:station:wmo:42043:1,2006-04-06T04:00:00Z,28.9818,-94.9186,1012.13,11111222 
TABS,ioos:station:wmo:42043:1,2006-04-06T04:30:00Z,28.9818,-94.9186,1011.97,11111222 
TABS,ioos:station:wmo:42043:1,2006-04-06T05:00:00Z,28.9818,-94.9186,1011.68,11111222 
TABS,ioos:station:wmo:42043:1,2006-04-06T05:30:00Z,28.9818,-94.9186,1011.35,11111222 
TABS,ioos:station:wmo:42043:1,2006-04-06T06:00:00Z,28.9818,-94.9186,1011.3,11111222 
TABS,ioos:station:wmo:42043:1,2006-04-06T06:30:00Z,28.9818,-94.9186,1010.95,11111222 
TABS,ioos:station:wmo:42043:1,2006-04-06T07:00:00Z,28.9818,-94.9186,1010.76,11111222 
TABS,ioos:station:wmo:42043:1,2006-04-06T07:30:00Z,28.9818,-94.9186,1010.55,11111222 
TABS,ioos:station:wmo:42043:1,2006-04-06T08:00:00Z,28.9818,-94.9186,1010.24,11111222 
TABS,ioos:station:wmo:42043:1,2006-04-06T08:30:00Z,28.9818,-94.9186,1010.17,11111222 
TABS,ioos:station:wmo:42043:1,2006-04-06T09:00:00Z,28.9818,-94.9186,1009.73,11111222 
TABS,ioos:station:wmo:42043:1,2006-04-06T09:30:00Z,28.9818,-94.9186,1009.5,11111222 
TABS,ioos:station:wmo:42043:1,2006-04-06T10:00:00Z,28.9818,-94.9186,1009.18,11111222 
TABS,ioos:station:wmo:42043:1,2006-04-06T10:30:00Z,28.9818,-94.9186,1009.34,11111222 
TABS,ioos:station:wmo:42043:1,2006-04-06T11:00:00Z,28.9818,-94.9186,1009.46,11111222 
TABS,ioos:station:wmo:42043:1,2006-04-06T11:30:00Z,28.9818,-94.9186,1009.63,11111222 
TABS,ioos:station:wmo:42043:1,2006-04-06T12:00:00Z,28.9818,-94.9186,1009.57,11111222 
TABS,ioos:station:wmo:42043:1,2006-04-06T12:30:00Z,28.9818,-94.9186,1009.73,11111222 
TABS,ioos:station:wmo:42043:1,2006-04-06T13:00:00Z,28.9818,-94.9186,1009.85,11111222 
TABS,ioos:station:wmo:42043:1,2006-04-06T13:30:00Z,28.9818,-94.9186,1010.36,11111222 
TABS,ioos:station:wmo:42043:1,2006-04-06T14:00:00Z,28.9818,-94.9186,1010.48,11111222 
TABS,ioos:station:wmo:42043:1,2006-04-06T14:30:00Z,28.9818,-94.9186,1010.38,11111222 
TABS,ioos:station:wmo:42043:1,2006-04-06T15:00:00Z,28.9818,-94.9186,1010.46,11111222 
TABS,ioos:station:wmo:42043:1,2006-04-06T15:30:00Z,28.9818,-94.9186,1010.74,11111222 
TABS,ioos:station:wmo:42043:1,2006-04-06T16:00:00Z,28.9818,-94.9186,1010.71,11111222 
TABS,ioos:station:wmo:42043:1,2006-04-06T16:30:00Z,28.9818,-94.9186,1010.22,11111222 
TABS,ioos:station:wmo:42043:1,2006-04-06T17:00:00Z,28.9818,-94.9186,1009.66,11111222 
TABS,ioos:station:wmo:42043:1,2006-04-06T17:30:00Z,28.9818,-94.9186,1009.09,11111222 
TABS,ioos:station:wmo:42043:1,2006-04-06T18:00:00Z,28.9818,-94.9186,1008.45,11111222 
TABS,ioos:station:wmo:42043:1,2006-04-06T18:30:00Z,28.9818,-94.9186,1007.84,11111222 